"Pseudo-MPEC" for CEGVYZ2

Created 2026 Apr 10 3:35:09 UT using Find_Orb

Click here for an explanation of pseudo-MPECs

 
 Astrometry: 
     CEGVYZ2*1C2026 04 08.37267114 21 42.419+03 09 11.27   ~489Z 21.00GVNEOCPG96
     CEGVYZ2 1C2026 04 08.37789014 21 42.527+03 08 48.52   ~489Z 21.59GVNEOCPG96
     CEGVYZ2 1C2026 04 08.38310314 21 42.638+03 08 27.13   ~489Z 20.98GVNEOCPG96
     CEGVYZ2 1C2026 04 08.44499014 21 44.530+03 04 06.70   ~48Bo 20.0 RVNEOCP691
     CEGVYZ2 1C2026 04 08.45349014 21 44.780+03 03 32.20   ~48Bo 20.7 RVNEOCP691
     CEGVYZ2 1C2026 04 08.46199014 21 45.040+03 02 56.10   ~48Bo 20.9 RVNEOCP691
     CEGVYZ2 1C2026 04 08.46643314 21 45.047+03 02 35.70   ~48BZ 20.34GVNEOCPI52
     CEGVYZ2 1C2026 04 08.46952514 21 45.248+03 02 23.03   ~48BZ 20.53GVNEOCPI52
     CEGVYZ2 1C2026 04 08.47262914 21 45.317+03 02 10.32   ~48BZ 21.17GVNEOCPI52
     CEGVYZ2 KB2026 04 08.96216414 22 23.75 +02 29 09.4    ~48No 21.0 GVNEOCPL01
     CEGVYZ2 KB2026 04 08.97277014 22 24.00 +02 28 29.5    ~48No 20.9 GVNEOCPL01
     CEGVYZ2 KB2026 04 09.01096014 22 26.37 +02 26 03.7    ~490o 20.8 GVNEOCPI93
     CEGVYZ2 KB2026 04 09.01584314 22 26.53 +02 25 45.7    ~490o 20.6 GVNEOCPI93
     CEGVYZ2 KB2026 04 09.02072614 22 26.63 +02 25 26.3    ~490o 20.7 GVNEOCPI93
     CEGVYZ2 |C2026 04 09.17669214 22 37.900+02 17 59.80   ~495K 21.1 GVNEOCP807
     CEGVYZ2 |C2026 04 09.18583014 22 38.060+02 17 26.40   ~495K 21.0 GVNEOCP807
     CEGVYZ2 |C2026 04 09.19497014 22 38.240+02 16 52.40   ~495K 21.3 GVNEOCP807
     CEGVYZ2 KC2026 04 09.29861914 22 41.95 +02 08 16.2    ~497Z 21.4 GVNEOCPH21
     CEGVYZ2 KC2026 04 09.30141714 22 42.05 +02 08 05.3    ~497Z 21.0 GVNEOCPH21
     CEGVYZ2 1C2026 04 09.34270414 22 45.235+02 05 47.00   ~498Z 21.33GVNEOCPI52
     CEGVYZ2 1C2026 04 09.34468114 22 45.253+02 05 40.20   ~498Z 21.59GVNEOCPI52
     CEGVYZ2 1C2026 04 09.34664914 22 45.253+02 05 32.86   ~498Z       VNEOCPI52
     CEGVYZ2 |C2026 04 10.11787014 23 29.870+01 23 17.00   ~4A3Z 21.2 GVNEOCP807
     CEGVYZ2 |C2026 04 10.12333014 23 30.040+01 22 59.70   ~4A3Z 21.9 GVNEOCP807
     CEGVYZ2 |C2026 04 10.12879014 23 30.140+01 22 41.70   ~4A3Z 21.4 GVNEOCP807

Station data:
(691) Steward Observatory, Kitt Peak - Spacewatch  (N31.962174 W111.600327)
   US/Arizona.  Observer J. V. Scotti. 0.9-m f/3 reflector + CCD.
(807) Cerro Tololo Observatory, La Serena  (S30.169133 W70.805900)  Chile.
   Observer R. Holmes. 0.61-m f/6.5 astrograph + CCD.
(G96) Mt. Lemmon Survey  (N32.442729 W110.788720)  US/Arizona.  Observer E.
   J. Christensen. Measurers T. Beuden, V. F. Carvajal, D. Fay, J. B.
   Fazekas, D. C. Fuls, A. R. Gibbs, A. D. Grauer, H. Gröller, J. K. Hogan,
   R. A. Kowalski, S. M. Larson, G. J. Leonard, D. Rankin, R. L. Seaman, F.
   C. Shelly, K. W. Wierzchoś. 1.5-m reflector + 10K CCD.
(H21) Astronomical Research Observatory, Westfield  (N39.483054 W87.968270)
   US/Illinois.  Observer R. Holmes. Measurers S. Foglia, L. Buzzi, T.
   Linder, R. Holmes. 0.40-m f/5.32 astrograph + CCD.
(I52) Steward Observatory, Mt. Lemmon Station  (N32.442570 W110.788920)
   US/Arizona. Measurers T. Beuden, V. F. Carvajal, D. Fay, J. B. Fazekas, D.
   C. Fuls, A. R. Gibbs, A. D. Grauer, H. Gröller, J. K. Hogan, R. A.
   Kowalski, S. M. Larson, G. J. Leonard, D. Rankin, R. L. Seaman, F. C.
   Shelly, K. W. Wierzchoś. 1.0-m prime focus + CCD.
(I93) St Pardon de Conques  (N44.558670 W0.202960)  France.  Observers F.
   Losse, W. D'Anna. Measurer F. Losse. 0.40-m f/3.7 reflector + CCD.
(L01) Višnjan Observatory, Tičan  (N45.290897 E13.749300)  Croatia.
   Observers K. Korlević, L. Poropat. Measurer K. Korlevic. 1.0-m f/2.9
   reflector + CCD.

Orbital elements:  CEGVYZ2
   Perihelion 2026 Feb 26.340978 +/- 0.0194 TT =  8:11:00.4 (JD 2461097.840978)
Epoch 2026 Apr 10.0 TT = JDT 2461140.5   Earth MOID: 0.0134   Ma: 0.0419
M  14.245856355 +/- 0.09            (J2000 ecliptic)             AutoNEOCP
n   0.333947091 +/- 0.00201         Peri.  353.888131 +/- 0.17
a   2.057552565 +/- 0.00825         Node   153.833599 +/- 0.16
e   0.55070158 +/- 0.00192          Incl.    1.485781 +/- 0.006
P   2.95139                H 25.86  G  0.15   U  8.6
q 0.924455097 +/- 0.000273    Q 3.190650033 +/- 0.0167
From 25 observations 2026 Apr. 8-10 (42.1 hr); mean residual 0".42
Residuals in arcseconds: 
260408 G96  .15+  .29+    260408 L01  .50+  .26-    260409 H21  1.1+  .68-    
260408 G96  .25-  .38-    260408 L01  .16-  .57+    260409 I52  .00   .23-    
260408 G96  .62-  .26+    260409 I93  .36-  .03+    260409 I52  .20-  .15+    
260408 691  .63+  .49-    260409 I93  .11+  .65+    260409 I52  .67-  .05-    
260408 691  .39+  .66+    260409 I93  .30-  .13-    260410 807  .83-  .17-    
260408 691  .15+  .18+    260409 807  .16+  .25-    260410 807  .09+  .24+    
260408 I52  1.1-  .66-    260409 807  .14-  .38+    260410 807  .05+  .07-    
260408 I52  .29+  .40-    260409 807  .01-  .38+    
260408 I52  .31-  .12-    260409 H21  .42+  .01-    

Ephemerides (geocentric):
Date (UTC) HH   RA             Dec           delta  r     elong  mag " sig PA
---- --------  ------------   ------------  ------ ------ -----  --- --------
2026 04 10 04  14 23 27.686   +01 19 42.93  .08034 1.0777 160.3 21.5 .238  48
2026 04 10 05  14 23 29.670   +01 17 28.89  .08059 1.0780 160.4 21.5 .252  46
2026 04 10 06  14 23 31.636   +01 15 15.62  .08084 1.0783 160.4 21.5 .267  44
2026 04 10 07  14 23 33.584   +01 13 03.14  .08108 1.0785 160.5 21.5 .282  42
2026 04 10 08  14 23 35.515   +01 10 51.43  .08133 1.0788 160.5 21.5 .298  41
2026 04 10 09  14 23 37.429   +01 08 40.48  .08158 1.0791 160.5 21.5 .313  39
2026 04 10 10  14 23 39.325   +01 06 30.29  .08183 1.0793 160.6 21.5 .329  38
2026 04 10 11  14 23 41.205   +01 04 20.85  .08208 1.0796 160.6 21.5 .346  37
2026 04 10 12  14 23 43.068   +01 02 12.15  .08233 1.0799 160.6 21.5 .363  35
2026 04 10 13  14 23 44.914   +01 00 04.20  .08258 1.0801 160.7 21.5 .380  34
2026 04 10 14  14 23 46.743   +00 57 56.97  .08282 1.0804 160.7 21.5 .397  33
2026 04 10 15  14 23 48.556   +00 55 50.47  .08307 1.0807 160.7 21.6 .414  32
2026 04 10 16  14 23 50.353   +00 53 44.69  .08332 1.0809 160.8 21.6 .432  32
2026 04 10 17  14 23 52.133   +00 51 39.63  .08357 1.0812 160.8 21.6 .450  31
2026 04 10 18  14 23 53.898   +00 49 35.27  .08382 1.0814 160.9 21.6 .469  30
2026 04 10 19  14 23 55.647   +00 47 31.61  .08407 1.0817 160.9 21.6 .487  29
2026 04 10 20  14 23 57.380   +00 45 28.65  .08432 1.0820 160.9 21.6 .506  29
2026 04 10 21  14 23 59.097   +00 43 26.37  .08457 1.0822 161.0 21.6 .525  28
2026 04 10 22  14 24 00.799   +00 41 24.78  .08482 1.0825 161.0 21.6 .544  27
2026 04 10 23  14 24 02.486   +00 39 23.86  .08507 1.0828 161.0 21.6 .564  27
2026 04 11 00  14 24 04.157   +00 37 23.62  .08532 1.0830 161.1 21.6 .583  26
2026 04 11 01  14 24 05.813   +00 35 24.05  .08557 1.0833 161.1 21.6 .603  26
2026 04 11 02  14 24 07.454   +00 33 25.13  .08582 1.0836 161.1 21.6 .623  25
2026 04 11 03  14 24 09.081   +00 31 26.87  .08607 1.0838 161.2 21.6 .644  24
2026 04 11 04  14 24 10.693   +00 29 29.26  .08632 1.0841 161.2 21.6 .664  24
2026 04 11 05  14 24 12.290   +00 27 32.29  .08657 1.0844 161.3 21.6 .685  24
2026 04 11 06  14 24 13.872   +00 25 35.96  .08682 1.0846 161.3 21.6 .705  23
2026 04 11 07  14 24 15.441   +00 23 40.26  .08707 1.0849 161.3 21.6 .726  23
2026 04 11 08  14 24 16.995   +00 21 45.20  .08732 1.0852 161.4 21.7 .747  22
2026 04 11 09  14 24 18.534   +00 19 50.75  .08757 1.0855 161.4 21.7 .769  22
2026 04 11 10  14 24 20.060   +00 17 56.92  .08782 1.0857 161.4 21.7 .790  22
2026 04 11 11  14 24 21.572   +00 16 03.71  .08807 1.0860 161.5 21.7 .812  21
2026 04 11 12  14 24 23.070   +00 14 11.10  .08832 1.0863 161.5 21.7 .833  21
2026 04 11 13  14 24 24.555   +00 12 19.10  .08858 1.0865 161.5 21.7 .855  21
2026 04 11 14  14 24 26.026   +00 10 27.70  .08883 1.0868 161.6 21.7 .877  20
2026 04 11 15  14 24 27.483   +00 08 36.88  .08908 1.0871 161.6 21.7 .900  20
2026 04 11 16  14 24 28.927   +00 06 46.66  .08933 1.0873 161.7 21.7 .922  20
2026 04 11 17  14 24 30.358   +00 04 57.02  .08958 1.0876 161.7 21.7 .944  19
2026 04 11 18  14 24 31.776   +00 03 07.95  .08983 1.0879 161.7 21.7 .967  19
2026 04 11 19  14 24 33.181   +00 01 19.47  .09008 1.0881 161.8 21.7 .990  19
2026 04 11 20  14 24 34.572   -00 00 28.45  .09034 1.0884 161.8 21.7 1.01  19
2026 04 11 21  14 24 35.951   -00 02 15.81  .09059 1.0887 161.8 21.7 1.04  18
2026 04 11 22  14 24 37.317   -00 04 02.60  .09084 1.0889 161.9 21.7 1.06  18
2026 04 11 23  14 24 38.671   -00 05 48.84  .09109 1.0892 161.9 21.7 1.08  18
2026 04 12 00  14 24 40.012   -00 07 34.53  .09134 1.0895 161.9 21.7 1.10  18
2026 04 12 01  14 24 41.341   -00 09 19.67  .09160 1.0898 162.0 21.7 1.13  17
2026 04 12 02  14 24 42.657   -00 11 04.26  .09185 1.0900 162.0 21.7 1.15  17
2026 04 12 03  14 24 43.961   -00 12 48.32  .09210 1.0903 162.0 21.8 1.18  17